[[{"header":{"parameterUnit":"m.s-1","parameterCategory":1,"la1":30.2991,"la2":30.254,"lo1":-89.0895,"lo2":-89.0444,"dy":0.0017,"dx":0.0017,"nx":28,"ny":28,"refTime":"2025-11-12T09:00:00:Z","depth":0,"parameterNumber":2,"parameterNumberName":"U-component_of_WINDS"},"data":[0,0,0,0,0,0,0,0,0,0,0,0,0,0,0,0,0,0,0,0,0,0,0,0,0,0,0,0,0,0,0,0,0,0,0,0,0,0,0,0,0,0,0,0,0,0,0,0,0,0,0,0,0,0,0,0,0,0,0.3724,0.3725,0,0.3743,0.3743,0.3743,0.369,0.3689,0.3687,0.3685,0.3702,0.3704,0.3706,0,0,0,0,0,0,0,0,0,0,0,0,0,0.3641,0.3643,0.3724,0.3725,0.3725,0.3743,0.3743,0.3743,0.369,0.3689,0.3687,0.3685,0.3701,0.3704,0.3706,0,0,0,0,0,0,0,0,0,0,0,0,0,0.367,0.3643,0.3724,0.3701,0.3699,0.3743,0.3743,0.3743,0.3691,0.3688,0.3686,0.3684,0.3701,0.3704,0.3706,0.3774,0,0,0.3715,0.3717,0,0,0,0,0,0,0,0,0.3668,0.3673,0.3704,0.3702,0.37,0.3712,0.372,0.3753,0.3692,0.3694,0.3685,0.3683,0.3707,0.3709,0.3718,0.3774,0.3775,0.3716,0.3717,0.3719,0.372,0,0,0,0,0,0,0,0.3666,0.3672,0.3732,0.3704,0.3702,0.3688,0.369,0.3726,0.3714,0.3693,0.369,0.3693,0.3706,0.3715,0.3718,0.3775,0.3716,0.3718,0.372,0.3721,0.3888,0.3891,0,0,0,0,0,0,0.3668,0.3671,0.3731,0.3732,0.3678,0.3692,0.3693,0.3711,0.3713,0.3711,0.3695,0.369,0.3712,0.3715,0.3719,0.3798,0.3719,0.3721,0.3723,0.3885,0.3889,0.3891,0,0,0,0,0,0,0.3666,0.3674,0.373,0.37,0.3707,0.3696,0.3715,0.3712,0.3722,0.3714,0.3712,0.3707,0.371,0.3714,0.3761,0.3798,0.3723,0.3725,0.3882,0.3886,0.389,0.3957,0,0,0,0,0,0,0.3664,0.3673,0.3699,0.3701,0.3708,0.3773,0.3718,0.3714,0.3727,0.3722,0.3725,0.3724,0.3708,0.3756,0.3764,0.38,0.3728,0.3879,0.3884,0.3889,0.3951,0.3963,0.3972,0,0,0,0,0,0.3661,0.3717,0.3701,0.3708,0.3741,0.3775,0.3779,0.3761,0.3731,0.3756,0.3752,0.3723,0.3792,0.3762,0.3769,0.3807,0.3876,0.3883,0.3888,0.3946,0.396,0.3972,0,0,0,0,0,0,0.3718,0.3716,0.3699,0.3757,0.3767,0.3766,0.3798,0.3776,0.3794,0.3787,0.3764,0.3765,0.3815,0.3816,0.3782,0.3873,0.3829,0.3837,0.3871,0.3884,0.3894,0.3893,0.373,0,0,0,0,0,0.3737,0.3766,0.3763,0.3814,0.382,0.3809,0.3823,0.3808,0.3817,0.382,0.3819,0.3828,0.3852,0.3868,0.3889,0.3951,0.3951,0.3981,0.3991,0.4,0.4007,0.404,0.4054,0.3911,0.3911,0.3911,0,0,0.3777,0.378,0.38,0.3826,0.3832,0.3862,0.3812,0.3846,0.3867,0.3825,0.3869,0.3869,0.3877,0.3932,0.3955,0.3933,0.4047,0.4008,0.4015,0.4017,0.4048,0.4062,0.4074,0.3915,0.3914,0.3914,0,0,0.3866,0.3871,0.3915,0.3922,0.3932,0.3924,0.3934,0.3937,0.3936,0.398,0.3949,0.3974,0.4015,0.4023,0.4032,0.4124,0.4099,0.4132,0.4187,0.4219,0.4231,0.4241,0.4274,0.4286,0.4139,0.4139,0.4139,0,0.3914,0.3959,0.3939,0.3976,0.3988,0.3952,0.3996,0.4004,0.402,0.4029,0.4004,0.4056,0.4059,0.4115,0.4138,0.4147,0.4158,0.4131,0.4231,0.424,0.4249,0.4281,0.4293,0.4143,0.4142,0.4142,0.4142,0,0.4018,0.4049,0.4083,0.4101,0.4117,0.4157,0.4143,0.4162,0.4146,0.4141,0.4186,0.4189,0.421,0.4222,0.4207,0.4277,0.4263,0.4235,0.4191,0.4267,0.4296,0.4308,0.4148,0.4147,0.4146,0.4145,0,0,0.4142,0.4149,0.4162,0.417,0.4179,0.4203,0.4241,0.4263,0.428,0.4292,0.4323,0.436,0.4334,0.4345,0.433,0.4358,0.4432,0.4327,0.4327,0.4347,0.451,0.4531,0.4545,0.4416,0.4418,0.4419,0.4509,0,0.4229,0.4296,0.428,0.4346,0.4375,0.4342,0.4375,0.4384,0.438,0.4403,0.4398,0.4424,0.4389,0.4395,0.4422,0.4417,0.4464,0.4411,0.4444,0.4446,0.4443,0.456,0.4582,0.4667,0.452,0.4522,0.4524,0,0.434,0.4358,0.4427,0.4432,0.4444,0.4474,0.4494,0.4517,0.4526,0.4521,0.4533,0.4513,0.455,0.4506,0.4557,0.4521,0.4533,0.4533,0.4536,0.4538,0.4489,0.4566,0.4693,0.4706,0.4541,0.454,0.4539,0,0.4424,0.4465,0.4512,0.452,0.4527,0.4549,0.4553,0.456,0.4575,0.4591,0.4601,0.4621,0.4632,0.4648,0.4634,0.4603,0.4687,0.4642,0.4684,0.4685,0.4703,0.4702,0.4834,0.4711,0.4711,0.4711,0.4711,0,0.4523,0.4567,0.455,0.4579,0.4627,0.4608,0.4656,0.4656,0.4663,0.469,0.4662,0.4689,0.4668,0.4693,0.4682,0.4726,0.4731,0.4728,0.4724,0.473,0.4731,0.4738,0.4732,0.4714,0.4714,0.4713,0.4712,0,0.4625,0.4616,0.4665,0.4668,0.467,0.4705,0.4707,0.4734,0.4728,0.4764,0.4771,0.4762,0.4789,0.4777,0.4805,0.4797,0.4855,0.4843,0.4852,0.4849,0.4892,0.4888,0.5034,0.5052,0.4917,0.4919,0.492,0,0.4689,0.4722,0.4729,0.4746,0.4752,0.478,0.4796,0.4779,0.4795,0.4809,0.4834,0.486,0.4879,0.4925,0.492,0.4942,0.4931,0.498,0.4934,0.4939,0.4932,0.493,0.4933,0.499,0.4991,0.4992,0.4993,0,0.4803,0.4797,0.4821,0.4844,0.4863,0.4879,0.4893,0.4909,0.4892,0.4913,0.4941,0.4957,0.4987,0.5012,0.5032,0.5034,0.5012,0.5008,0.5019,0.5026,0.503,0.5028,0.4877,0.5005,0.5004,0.5003,0.5002,0.5002,0.4888,0.4916,0.4926,0.4953,0.4962,0.4977,0.5002,0.5,0.5024,0.5048,0.5036,0.507,0.5078,0.5102,0.5109,0.5134,0.5114,0.513,0.5134,0.5138,0.5144,0.5026,0.5137,0.5137,0.5137,0.5136,0.5136,0,0.5001,0.5006,0.5032,0.5053,0.5075,0.5052,0.5067,0.5086,0.5116,0.5127,0.5147,0.5181,0.5206,0.5204,0.5226,0.5247,0.5237,0.5254,0.5252,0.5253,0.516,0.5149,0.5262,0.5262,0.5262,0.5262,0.5262,0.5262,0.5062,0.5109,0.5105,0.5156,0.516,0.5194,0.5204,0.5217,0.5225,0.5264,0.5285,0.5284,0.529,0.5313,0.5335,0.5334,0.5343,0.5364,0.5359,0.5272,0.526,0.5248,0.5237,0.5366,0.5366,0.5449,0.545,0.5451]},{"header":{"parameterUnit":"m.s-1","parameterCategory":1,"la1":30.2991,"la2":30.254,"lo1":-89.0895,"lo2":-89.0444,"dy":0.0017,"dx":0.0017,"nx":28,"ny":28,"refTime":"2025-11-12T09:00:00:Z","depth":0,"parameterNumber":3,"parameterNumberName":"V-component_of_WINDS"},"data":[0,0,0,0,0,0,0,0,0,0,0,0,0,0,0,0,0,0,0,0,0,0,0,0,0,0,0,0,0,0,0,0,0,0,0,0,0,0,0,0,0,0,0,0,0,0,0,0,0,0,0,0,0,0,0,0,0,0,0.4622,0.4621,0,0.4551,0.4551,0.455,0.4411,0.4408,0.4405,0.4403,0.4334,0.4334,0.4335,0,0,0,0,0,0,0,0,0,0,0,0,0,0.4637,0.4638,0.4622,0.4621,0.462,0.4552,0.4551,0.455,0.4411,0.4408,0.4405,0.4402,0.4334,0.4334,0.4335,0,0,0,0,0,0,0,0,0,0,0,0,0,0.4605,0.4638,0.4622,0.4543,0.4535,0.4552,0.4551,0.4549,0.4412,0.4408,0.4404,0.44,0.4333,0.4334,0.4335,0.4425,0,0,0.4339,0.4339,0,0,0,0,0,0,0,0,0.4607,0.4605,0.4555,0.4548,0.4539,0.4486,0.4531,0.4508,0.4413,0.4459,0.4403,0.4398,0.4388,0.4384,0.438,0.4421,0.4419,0.4339,0.4339,0.434,0.434,0,0,0,0,0,0,0,0.461,0.4607,0.4594,0.4555,0.4545,0.4511,0.4502,0.4526,0.4447,0.4455,0.4444,0.4438,0.4383,0.4379,0.4378,0.4417,0.4339,0.434,0.434,0.4341,0.4528,0.4532,0,0,0,0,0,0,0.4623,0.461,0.4596,0.4592,0.4564,0.4514,0.4504,0.4507,0.4447,0.4434,0.4441,0.4431,0.438,0.4376,0.4375,0.4475,0.434,0.4341,0.4342,0.4523,0.4529,0.4533,0,0,0,0,0,0,0.4624,0.4623,0.4599,0.4598,0.4592,0.4518,0.4523,0.4508,0.4504,0.4437,0.4422,0.4452,0.4376,0.4373,0.4413,0.4471,0.4341,0.4342,0.4518,0.4525,0.4531,0.4678,0,0,0,0,0,0,0.4625,0.4625,0.4658,0.46,0.4593,0.4639,0.4526,0.451,0.4506,0.4493,0.4443,0.4431,0.4373,0.4412,0.4414,0.447,0.4343,0.4513,0.4521,0.4529,0.4667,0.4688,0.4706,0,0,0,0,0,0.4626,0.4702,0.466,0.4659,0.4633,0.4642,0.4638,0.4569,0.4512,0.4544,0.4501,0.4433,0.4464,0.4417,0.4418,0.4476,0.4509,0.4519,0.4528,0.4659,0.4684,0.4706,0,0,0,0,0,0,0.477,0.4693,0.4646,0.4705,0.4681,0.4619,0.4658,0.4598,0.4591,0.4579,0.4494,0.4484,0.4535,0.4509,0.4458,0.4558,0.4475,0.4486,0.4574,0.4598,0.4617,0.4623,0.4344,0,0,0,0,0,0.4809,0.4822,0.4754,0.4814,0.4804,0.4734,0.4735,0.4683,0.4656,0.4645,0.4604,0.4581,0.4584,0.4589,0.4589,0.4662,0.4649,0.4702,0.4721,0.4737,0.4748,0.4784,0.4807,0.4565,0.4565,0.4565,0,0,0.4889,0.4848,0.4863,0.4842,0.4817,0.4834,0.4726,0.4748,0.476,0.4649,0.4684,0.4653,0.4621,0.4677,0.47,0.4657,0.4811,0.475,0.4763,0.4765,0.4796,0.4819,0.484,0.4572,0.457,0.4569,0,0,0.5044,0.5014,0.506,0.5037,0.5001,0.4953,0.4964,0.491,0.4885,0.4919,0.4835,0.4848,0.4857,0.4837,0.4829,0.4974,0.4911,0.4976,0.5079,0.5115,0.5134,0.5151,0.5203,0.5223,0.4987,0.4987,0.4987,0,0.5149,0.5169,0.5092,0.5119,0.5112,0.501,0.5057,0.5038,0.5005,0.5002,0.4954,0.4962,0.4933,0.4984,0.5019,0.5015,0.5026,0.4983,0.5137,0.5153,0.5167,0.5217,0.5237,0.4995,0.4994,0.4993,0.4993,0,0.53,0.5316,0.5358,0.5326,0.5324,0.5361,0.5289,0.5296,0.5244,0.5201,0.5237,0.5198,0.5188,0.5196,0.5146,0.5239,0.5214,0.5153,0.5068,0.52,0.5245,0.5263,0.5007,0.5004,0.5002,0.4999,0,0,0.5546,0.547,0.5486,0.5471,0.5422,0.5433,0.5465,0.5454,0.5462,0.5441,0.5467,0.5476,0.5418,0.5409,0.5355,0.5387,0.5505,0.5321,0.5319,0.5358,0.5606,0.5653,0.5676,0.5462,0.5465,0.5468,0.5609,0,0.5691,0.5741,0.5671,0.5737,0.575,0.5653,0.5681,0.5654,0.5615,0.5621,0.5577,0.5586,0.5509,0.5502,0.5529,0.5485,0.5554,0.5474,0.5486,0.5487,0.5499,0.57,0.575,0.5885,0.5626,0.5629,0.5631,0,0.5868,0.5854,0.5922,0.5868,0.5871,0.5897,0.5881,0.5888,0.5856,0.5825,0.5813,0.5749,0.5776,0.5693,0.573,0.5677,0.5677,0.5656,0.566,0.566,0.5569,0.5706,0.5926,0.5947,0.5658,0.5655,0.5653,0,0.6042,0.6041,0.608,0.6069,0.6008,0.6028,0.6004,0.5967,0.5965,0.5951,0.5949,0.5939,0.5934,0.5927,0.5862,0.5807,0.5907,0.5818,0.5883,0.5885,0.5911,0.591,0.6135,0.5909,0.5908,0.5908,0.5908,0,0.6212,0.6257,0.6157,0.6182,0.623,0.6148,0.6198,0.6163,0.6131,0.6148,0.6062,0.608,0.5991,0.5999,0.5948,0.5987,0.5985,0.5961,0.5948,0.597,0.5973,0.597,0.596,0.5913,0.5912,0.5911,0.591,0,0.6415,0.635,0.6387,0.6325,0.631,0.6348,0.6295,0.6315,0.6269,0.6291,0.6292,0.6221,0.6225,0.6159,0.6151,0.6116,0.6178,0.6147,0.619,0.618,0.6249,0.6245,0.6482,0.6509,0.6265,0.6267,0.6269,0,0.6529,0.6561,0.6502,0.6506,0.6486,0.6494,0.6491,0.6412,0.6412,0.6377,0.6402,0.6399,0.6393,0.6405,0.6353,0.6346,0.6315,0.6398,0.6313,0.6335,0.6317,0.6317,0.632,0.6417,0.642,0.6423,0.6425,0,0.6738,0.6704,0.6702,0.669,0.6688,0.6674,0.6655,0.6664,0.6577,0.6582,0.6585,0.658,0.6571,0.657,0.6553,0.6527,0.6463,0.6451,0.6466,0.649,0.6514,0.6503,0.624,0.6447,0.6445,0.6443,0.6442,0.6441,0.6901,0.6925,0.6887,0.6888,0.6864,0.6848,0.6864,0.6819,0.682,0.6807,0.6759,0.6771,0.6736,0.6706,0.6687,0.6695,0.6654,0.6675,0.6681,0.6688,0.6701,0.6511,0.6691,0.669,0.669,0.6689,0.6688,0,0.7107,0.7077,0.7078,0.7053,0.7054,0.699,0.6965,0.6971,0.6982,0.6954,0.695,0.6953,0.6951,0.6898,0.6889,0.6906,0.6876,0.6907,0.6906,0.6901,0.6738,0.6726,0.6931,0.6931,0.6931,0.6931,0.6931,0.6931,0.7214,0.7251,0.7212,0.7237,0.7206,0.7216,0.7207,0.7192,0.717,0.7177,0.7175,0.714,0.7102,0.709,0.7085,0.7069,0.7071,0.7112,0.7087,0.6936,0.6912,0.689,0.6879,0.7113,0.7113,0.7249,0.725,0.7251]}]]